Lid_Strength_Index
1 0 0 -0 -0 -1 -1 -1 -1 -1 -2 -2 -2 -1 -2 -1 -1 1 3 1 3 6 6 5 5 6 7 8 10 8 9 9 10 12 13 13 14 12 14 12 13 15 16 15 14 16 18 8 8 11 10 9 8 8
1 0 0 -0 -0 -1 -1 -1 -1 -1 -1 -1 -1 -2 -1 -1 -1 -1 4 2 1 4 5 3 3 3 3 4 7 8 8 9 8 11 11 11 13 13 14 16 10 15 13 14 12 14 9 8 9 7 7 8 8 8
1 0 0 0 -0 -0 -0 -0 -1 -0 -1 -1 -1 -1 -1 -1 -1 -0 4 3 4 5 6 6 6 3 2 3 3 8 7 6 7 6 9 10 13 11 15 14 12 10 9 12 11 9 9 8 7 7 6 7 6 6
1 1 1 0 0 0 0 0 -0 -0 -0 -0 -1 -1 -1 -1 -1 -0 4 4 4 4 9 8 3 5 2 3 4 4 5 5 5 6 9 11 12 8 12 11 12 10 9 11 11 9 9 8 7 7 6 6 6 6
1 1 1 1 1 1 1 1 1 1 0 0 0 -0 -1 -1 -0 1 2 3 2 5 9 7 5 5 5 5 5 5 5 7 8 9 9 11 9 9 9 10 12 9 11 13 13 9 9 8 6 6 6 6 6 7
1 1 1 1 1 1 1 1 1 1 1 1 1 1 0 0 0 5 8 4 2 2 7 10 8 6 5 4 5 6 6 6 8 10 8 8 6 9 12 13 9 8 7 7 9 7 7 6 6 6 7 6 6 7
1 1 1 1 1 1 1 1 1 1 1 1 1 1 1 1 3 7 9 6 3 3 7 9 11 6 4 5 7 7 7 8 8 8 8 8 8 9 11 13 9 8 7 7 6 6 7 6 7 6 6 5 5 5
1 1 1 1 1 1 1 1 1 1 1 1 1 2 2 2 2 5 4 3 3 6 7 11 11 9 5 8 8 5 8 7 7 8 8 9 8 9 12 9 8 7 7 7 6 5 6 5 5 6 5 6 6 6
1 1 1 2 2 1 1 1 1 1 1 1 1 2 4 5 7 5 3 3 4 6 10 10 12 12 5 7 7 7 6 10 7 10 10 9 10 12 10 9 8 7 8 7 6 6 6 6 6 6 6 7 7 6
1 1 1 1 2 2 1 1 1 1 1 1 3 6 8 5 2 2 5 7 8 8 9 12 9 11 9 8 9 9 8 10 13 10 8 11 11 9 7 7 7 6 6 6 7 8 7 7 7 6 6 6 6 6
1 1 1 1 2 2 2 1 1 1 1 5 7 8 6 2 5 6 9 10 10 11 10 10 10 11 6 10 10 8 10 10 14 11 12 12 13 9 7 6 6 5 5 5 5 6 5 5 6 6 5 5 5 5
1 1 1 1 2 2 2 2 1 4 5 5 5 5 5 7 8 10 13 12 13 13 9 10 8 7 7 6 10 9 11 10 14 9 12 14 11 8 7 6 6 5 5 5 5 5 5 6 6 5 5 5 4 4
2 1 1 2 2 2 2 2 2 2 2 4 6 7 9 9 12 13 14 13 12 9 8 8 9 8 7 7 9 10 12 13 9 12 15 12 9 8 7 6 6 5 5 5 5 4 4 4 4 5 4 4 4 4
2 2 2 2 2 2 1 1 2 2 4 7 8 11 10 11 10 10 10 10 8 7 7 7 9 9 8 9 9 12 11 10 14 15 14 10 8 8 7 6 6 6 5 5 5 4 4 4 4 4 3 4 5 5
2 2 2 2 1 1 1 2 2 4 5 7 8 12 10 8 7 7 6 7 6 6 7 8 8 8 9 10 10 11 13 14 13 14 11 8 7 6 6 6 5 5 5 5 4 4 4 4 4 4 4 4 4 4
2 2 2 1 1 1 2 2 2 3 5 6 7 9 7 8 8 7 7 7 5 6 7 8 9 11 11 11 12 13 14 15 12 9 7 6 6 6 6 5 5 5 5 5 5 5 6 6 6 6 5 5 5 6
2 4 2 1 2 2 2 3 3 5 5 6 8 6 7 8 8 7 6 6 5 6 9 9 12 12 10 12 13 11 12 10 8 7 6 6 6 6 5 5 5 5 5 5 6 8 7 7 7 6 7 7 6 6
5 3 2 2 2 2 3 3 4 5 7 7 8 7 6 6 7 6 5 5 6 7 7 9 8 11 12 13 12 9 8 7 6 6 6 5 5 4 4 5 5 4 5 6 7 8 8 7 8 8 8 7 7 7
4 3 2 2 3 4 5 5 5 7 7 7 6 6 6 6 5 5 5 5 5 7 7 7 10 11 10 9 9 8 7 6 7 6 5 4 4 4 4 4 4 5 7 8 8 8 8 8 8 8 8 7 7 6
3 2 2 2 2 4 6 6 4 7 7 6 6 6 7 7 6 6 5 6 6 7 9 10 9 8 9 8 7 6 5 5 5 6 6 5 5 5 5 6 6 6 7 7 7 8 8 8 7 7 8 7 7 8
3 2 2 3 3 4 5 6 6 6 7 7 6 6 7 6 6 6 6 6 7 8 8 8 8 8 7 6 6 6 5 5 7 7 7 8 7 6 6 6 6 6 7 7 8 8 8 8 8 6 7 7 6 6
3 1 3 2 4 4 6 5 6 6 7 7 7 7 8 8 8 7 7 7 7 7 6 7 7 7 7 7 7 6 6 5 6 6 5 6 7 8 8 7 7 8 8 8 8 9 9 9 8 7 7 7 7 7
2 3 4 4 6 9 8 5 7 7 9 8 7 8 8 8 7 6 8 7 6 5 6 6 6 6 7 7 8 8 8 7 8 7 6 7 7 7 8 8 8 9 9 9 9 9 10 9 10 10 9 9 9 9
3 4 6 7 7 9 6 8 6 7 7 8 9 10 9 8 6 8 10 7 6 5 5 6 6 6 6 7 8 7 7 7 7 7 8 7 9 10 10 10 10 10 10 10 10 10 10 10 10 10 10 10 10 10
8 8 7 11 6 8 8 8 8 8 10 9 10 10 9 7 9 9 9 8 6 5 6 5 5 6 8 9 8 8 7 8 8 8 8 8 9 9 10 10 10 10 10 10 11 11 11 11 11 10 10 10 10 10
10 7 9 8 9 9 9 10 9 9 9 10 9 8 7 9 10 11 9 7 6 6 5 5 5 7 8 8 8 8 8 8 8 9 9 8 9 10 11 11 11 10 9 9 10 10 9 9 9 9 10 10 10 10
10 9 7 5 7 7 8 7 7 8 9 10 9 9 9 11 12 9 6 5 6 5 4 4 5 8 9 9 8 9 8 8 10 9 9 9 9 9 10 11 11 10 9 8 9 9 9 9 9 9 9 10 10 10
7 7 9 8 8 7 8 8 8 9 8 7 8 10 10 10 10 7 6 5 4 3 4 6 7 8 8 8 9 9 9 9 9 10 10 10 10 9 9 9 9 7 9 9 9 9 9 9 9 9 9 10 10 9
8 6 6 9 8 7 8 8 8 7 6 7 9 9 8 6 6 6 5 5 7 8 9 9 9 8 8 8 8 9 9 10 11 12 12 13 12 11 10 10 10 10 9 9 8 8 8 9 9 9 9 10 10 10
7 5 8 7 8 9 7 6 7 6 6 6 6 6 6 6 4 4 6 7 8 9 10 9 9 9 10 10 10 10 10 11 11 12 13 13 12 11 10 10 10 10 10 9 10 10 8 9 9 9 9 10 10 10
5 5 7 7 7 6 6 6 6 6 6 6 6 7 7 6 5 5 6 7 9 9 9 10 10 10 10 10 10 11 12 11 10 10 11 11 11 10 10 10 10 10 10 9 10 10 10 10 10 10 10 10 9 9
5 6 7 8 8 5 5 6 7 6 6 6 6 6 6 6 7 6 6 7 9 10 8 9 10 10 10 10 10 10 9 10 10 10 10 11 11 10 10 10 10 9 9 9 9 9 9 9 10 10 10 9 9 9
6 6 6 6 7 7 6 6 7 7 7 7 7 6 6 6 8 7 7 7 8 9 9 9 9 9 9 9 9 9 9 10 10 9 9 9 9 10 11 10 10 9 9 9 9 9 9 9 9 9 9 9 9 8